Location: Haulchin
(50.3172°N, 3.4360°E)
Time: 03:35:02
(UTC+00:00)

RESURS DK-1 - Pass Details

Date: 23 May 2024
Orbit: 541 x 547 km, 69.9° (Epoch: 17 June)

Event Time Altitude Azimuth Distance (km) Brightness Sun altitude
Rises 02:03:04 0° 330° (NNW) 2,722 6.2 -12.6°
Reaches altitude 10° 02:05:16 10° 333° (NNW) 1,826 5.4 -12.4°
Maximum altitude 02:09:20 70° 57° (ENE) 587 2.6 -12.0°
Drops below altitude 10° 02:13:23 10° 142° (SE) 1,816 4.8 -11.7°
Sets 02:15:35 0° 144° (SE) 2,706 5.7 -11.5°
